Notices

What's New in latest Release from April 7th, 2021:

- Updated Glossary, including Speed of Maximum Gust, and Total Hourly Precipitation

- Updated national and regional climate services offices contacts and prices information

- Addition of station inventory lists for 1981-2010, 1971-2000, and 1961-1990 Normals.

If you haven't already, please take our survey and provide feedback about our website: https://eccc.sondage-survey.ca/f/LanguageSelection.aspx?s=442ca660-fcf1-47c0-95a9-59707d6fd709

Hourly Data Report for December 11, 2019

EUREKA CLIMATE
NUNAVUT
Current Station Operator: ECCC - MSC

79°59'21.000" N
85°56'02.000" W
10.00 m
2401199
71613
NEK

Download Data

Hourly Data (December 2019)
Hourly Data Report for December 11, 2019
TIME
LST
Temp Definition
°C
Dew Point Definition
°C
Rel Hum Definition
%
Precip. Amount Definition
mm

Wind Dir Definition
10's deg

Wind Spd Definition
km/h
Visibility Definition
km
Stn Press Definition
kPa
Hmdx Definition


Wind Chill Definition


Weather Definition


00:00 -20.6 -23.1 80 0.0 31 20   101.84   -31 LegendNANA
01:00 -28.9 -31.9 76 0.0 12 12   101.93   -39 LegendNANA
02:00 -28.5 -31.4 76 0.0 11 14   101.99   -39 LegendNANA
03:00 -29.4 -32.4 76 0.0 13 6   102.08   -36 LegendNANA
04:00 -26.0 -28.6 79 0.0 31 13   102.12   -36 LegendNANA
05:00 -28.4 -30.9 79 0.0 24 2   102.12   -31 LegendNANA
06:00 -24.2 -26.8 79 0.0 34 18   102.08   -35 LegendNANA
07:00 -28.7 -31.4 78 0.0 11 6   102.08   -35 LegendNANA
08:00 -27.8 -30.5 78 0.0 10 13   102.11   -38 LegendNANA
09:00 -28.2 -30.9 77 0.0 9 3   102.08   -31 LegendNANA
10:00 -29.9 -33.1 74 0.0 11 11   102.06   -40 LegendNANA
11:00 -28.4 -31.2 77 0.0 11 8   102.04   -36 LegendNANA
12:00 -28.0 -30.8 77 0.0 10 15   101.98   -39 LegendNANA
13:00 -26.9 -29.6 78 0.0 10 14   101.96   -37 LegendNANA
14:00 -26.6 -29.3 78 0.0 13 9   101.90   -35 LegendNANA
15:00 -26.5 -29.1 79 0.0 12 18   101.85   -38 LegendNANA
16:00 -22.3 -24.4 83 0.0 14 8   101.77   -29 LegendNANA
17:00 -16.8 -18.4 87 0.0 2 31   101.63   -29 LegendNANA
18:00 -17.3 -18.9 88 0.0 3 36   101.51   -30 LegendNANA
19:00 -17.1 -18.8 86 0.0 4 39   101.41   -30 LegendNANA
20:00 -16.2 -17.7 88 0.2 34 48   101.32   -30 LegendNANA
21:00 -16.2 -18.2 85 0.0 31 26   101.30   -27 LegendNANA
22:00 -16.3 -18.2 85 0.0 19 8   101.28   -22 LegendNANA
23:00 -18.8 -21.0 83 0.0 4 11   101.19   -26 LegendNANA

Notes on Data Quality.

Legend

  • E = Estimated
  • M = Missing
  • NA = Not Available*
  • [empty] = Indicates an unobserved value
Date modified: